Time,TemperatureF,DewpointF,PressureIn,WindDirection,WindDirectionDegrees,WindSpeedMPH,WindSpeedGustMPH,Humidity,HourlyPrecipIn,Conditions,Clouds,dailyrainin,SoftwareType,DateUTC
2013-09-05 00:12:00,75.0,59.0,27.83,North,354,11.0,19.0,58,0.00,,,0.00,,2013-09-05 07:12:00,
2013-09-05 00:22:00,74.0,59.0,27.83,NNW,328,10.0,18.0,59,0.00,,,0.00,,2013-09-05 07:22:00,
2013-09-05 00:42:00,74.0,58.0,27.83,NNW,342,6.0,20.0,58,0.00,,,0.00,,2013-09-05 07:42:00,
2013-09-05 00:52:00,72.0,58.0,27.84,NW,310,10.0,17.0,62,0.00,,,0.00,,2013-09-05 07:52:00,
2013-09-05 01:12:00,72.0,59.0,27.84,NW,314,8.0,16.0,63,0.00,,,0.00,,2013-09-05 08:12:00,
2013-09-05 01:21:00,72.0,59.0,27.83,NNW,338,9.0,14.0,63,0.00,,,0.00,,2013-09-05 08:21:00,
2013-09-05 01:42:00,71.0,58.0,27.84,West,264,6.0,14.0,63,0.00,,,0.00,,2013-09-05 08:42:00,
2013-09-05 01:52:00,71.0,58.0,27.85,West,281,8.0,14.0,64,0.00,,,0.00,,2013-09-05 08:52:00,
2013-09-05 02:11:00,72.0,59.0,27.85,WNW,291,13.0,19.0,63,0.00,,,0.00,,2013-09-05 09:11:00,
2013-09-05 02:22:00,72.0,57.0,27.84,WNW,301,13.0,19.0,60,0.00,,,0.00,,2013-09-05 09:22:00,
2013-09-05 02:43:00,73.0,58.0,27.85,West,269,10.0,22.0,60,0.00,,,0.00,,2013-09-05 09:43:00,
2013-09-05 02:53:00,73.0,58.0,27.85,West,276,9.0,17.0,59,0.00,,,0.00,,2013-09-05 09:53:00,
2013-09-05 03:12:00,75.0,56.0,27.84,WNW,288,8.0,14.0,52,0.00,,,0.00,,2013-09-05 10:12:00,
2013-09-05 03:23:00,74.0,57.0,27.84,WNW,285,8.0,17.0,56,0.00,,,0.00,,2013-09-05 10:23:00,
2013-09-05 03:42:00,73.0,58.0,27.85,NNW,338,3.0,12.0,59,0.00,,,0.00,,2013-09-05 10:42:00,
2013-09-05 03:53:00,71.0,58.0,27.85,NW,321,6.0,13.0,63,0.00,,,0.00,,2013-09-05 10:53:00,
2013-09-05 04:11:00,70.0,59.0,27.85,WNW,301,8.0,16.0,67,0.00,,,0.00,,2013-09-05 11:11:00,
2013-09-05 04:21:00,70.0,59.0,27.86,WSW,252,6.0,14.0,69,0.00,,,0.00,,2013-09-05 11:21:00,
2013-09-05 04:42:00,70.0,59.0,27.85,WSW,256,5.0,13.0,69,0.00,,,0.00,,2013-09-05 11:42:00,
2013-09-05 04:52:00,70.0,59.0,27.85,NW,321,6.0,13.0,68,0.00,,,0.00,,2013-09-05 11:52:00,
2013-09-05 05:12:00,70.0,59.0,27.86,WSW,248,7.0,14.0,68,0.00,,,0.00,,2013-09-05 12:12:00,
2013-09-05 05:21:00,70.0,59.0,27.87,WNW,283,6.0,14.0,68,0.00,,,0.00,,2013-09-05 12:21:00,
2013-09-05 05:42:00,70.0,58.0,27.87,NW,314,8.0,13.0,66,0.00,,,0.00,,2013-09-05 12:42:00,
2013-09-05 05:52:00,70.0,58.0,27.87,WNW,292,10.0,18.0,66,0.00,,,0.00,,2013-09-05 12:52:00,
2013-09-05 06:12:00,70.0,58.0,27.87,NW,309,10.0,19.0,66,0.00,,,0.00,,2013-09-05 13:12:00,
2013-09-05 06:21:00,70.0,57.0,27.87,SW,218,8.0,17.0,64,0.00,,,0.00,,2013-09-05 13:21:00,
2013-09-05 06:42:00,71.0,57.0,27.87,WNW,295,10.0,19.0,62,0.00,,,0.00,,2013-09-05 13:42:00,
2013-09-05 06:53:00,71.0,57.0,27.88,WNW,301,8.0,18.0,61,0.00,,,0.00,,2013-09-05 13:53:00,
2013-09-05 07:12:00,70.0,57.0,27.88,NW,312,7.0,15.0,64,0.00,,,0.00,,2013-09-05 14:12:00,
2013-09-05 07:22:00,69.0,58.0,27.89,WNW,290,10.0,18.0,67,0.00,,,0.00,,2013-09-05 14:22:00,
2013-09-05 07:42:00,69.0,58.0,27.89,NW,304,7.0,15.0,69,0.00,,,0.00,,2013-09-05 14:42:00,
2013-09-05 07:52:00,69.0,59.0,27.89,NNW,343,9.0,17.0,70,0.00,,,0.00,,2013-09-05 14:52:00,
2013-09-05 08:11:00,68.0,59.0,27.89,NW,304,7.0,16.0,72,0.00,,,0.00,,2013-09-05 15:11:00,
2013-09-05 08:22:00,68.0,59.0,27.90,West,276,7.0,15.0,73,0.00,,,0.00,,2013-09-05 15:22:00,
2013-09-05 08:43:00,69.0,59.0,27.90,West,281,9.0,17.0,70,0.00,,,0.00,,2013-09-05 15:43:00,
2013-09-05 08:54:00,70.0,59.0,27.90,NW,305,11.0,18.0,69,0.00,,,0.00,,2013-09-05 15:54:00,
2013-09-05 09:13:00,70.0,59.0,27.90,NW,318,11.0,18.0,69,0.00,,,0.00,,2013-09-05 16:13:00,
2013-09-05 09:24:00,70.0,59.0,27.90,NW,308,8.0,14.0,68,0.00,,,0.00,,2013-09-05 16:24:00,
2013-09-05 09:43:00,71.0,59.0,27.90,WNW,297,5.0,12.0,67,0.00,,,0.00,,2013-09-05 16:43:00,
2013-09-05 09:54:00,71.0,59.0,27.90,WNW,301,7.0,13.0,67,0.00,,,0.00,,2013-09-05 16:54:00,
2013-09-05 10:12:00,71.0,59.0,27.89,NW,305,7.0,12.0,65,0.00,,,0.00,,2013-09-05 17:12:00,
2013-09-05 10:23:00,72.0,60.0,27.89,NW,316,7.0,11.0,65,0.00,,,0.00,,2013-09-05 17:23:00,
2013-09-05 10:43:00,72.0,59.0,27.89,WNW,295,6.0,10.0,63,0.00,,,0.00,,2013-09-05 17:43:00,
2013-09-05 10:52:00,73.0,59.0,27.89,NW,321,5.0,9.0,62,0.00,,,0.00,,2013-09-05 17:52:00,
2013-09-05 11:12:00,74.0,59.0,27.88,WNW,290,6.0,11.0,60,0.00,,,0.00,,2013-09-05 18:12:00,
2013-09-05 11:21:00,76.0,60.0,27.88,NW,321,3.0,8.0,57,0.00,,,0.00,,2013-09-05 18:21:00,
2013-09-05 11:52:00,77.0,60.0,27.87,NE,37,1.0,4.0,55,0.00,,,0.00,,2013-09-05 18:52:00,
2013-09-05 12:11:00,78.0,61.0,27.87,ENE,65,0.0,4.0,55,0.00,,,0.00,,2013-09-05 19:11:00,
2013-09-05 12:21:00,80.0,62.0,27.87,ENE,64,0.0,1.0,54,0.00,,,0.00,,2013-09-05 19:21:00,
2013-09-05 12:42:00,81.0,61.0,27.87,NW,308,1.0,2.0,51,0.00,,,0.00,,2013-09-05 19:42:00,
2013-09-05 12:52:00,82.0,61.0,27.86,North,4,0.0,3.0,50,0.00,,,0.00,,2013-09-05 19:52:00,
2013-09-05 13:11:00,84.0,62.0,27.84,SE,131,0.0,2.0,48,0.00,,,0.00,,2013-09-05 20:11:00,
2013-09-05 13:22:00,84.0,62.0,27.83,NE,53,1.0,4.0,47,0.00,,,0.00,,2013-09-05 20:22:00,
2013-09-05 13:52:00,84.0,62.0,27.82,ESE,113,0.0,2.0,48,0.00,,,0.00,,2013-09-05 20:52:00,
2013-09-05 14:11:00,86.0,63.0,27.81,SSE,149,0.0,1.0,46,0.00,,,0.00,,2013-09-05 21:11:00,
2013-09-05 14:21:00,86.0,63.0,27.81,SE,143,0.0,1.0,46,0.00,,,0.00,,2013-09-05 21:21:00,
2013-09-05 14:54:00,86.0,62.0,27.79,ESE,113,0.0,2.0,45,0.00,,,0.00,,2013-09-05 21:54:00,
2013-09-05 15:13:00,86.0,62.0,27.79,ENE,74,0.0,1.0,44,0.00,,,0.00,,2013-09-05 22:13:00,
2013-09-05 15:24:00,84.0,60.0,27.78,NNW,328,0.0,3.0,45,0.00,,,0.00,,2013-09-05 22:24:00,
2013-09-05 15:53:00,85.0,62.0,27.84,NW,317,4.0,7.0,47,0.00,,,0.00,,2013-09-05 22:53:00,
2013-09-05 16:02:00,85.0,62.0,27.84,NW,317,4.0,7.0,47,0.00,,,0.00,,2013-09-05 23:02:00,
2013-09-05 16:12:00,85.0,62.0,27.84,NW,317,4.0,7.0,47,0.00,,,0.00,,2013-09-05 23:12:00,
2013-09-05 16:22:00,85.0,61.0,27.76,NNW,342,3.0,9.0,44,0.00,,,0.00,,2013-09-05 23:22:00,
2013-09-05 16:53:00,86.0,60.0,27.76,NW,319,1.0,3.0,41,0.00,,,0.00,,2013-09-05 23:53:00,
2013-09-05 17:12:00,86.0,60.0,27.75,NW,326,1.0,7.0,42,0.00,,,0.00,,2013-09-06 00:12:00,
2013-09-05 17:22:00,86.0,61.0,27.81,WNW,287,0.0,2.0,43,0.00,,,0.00,,2013-09-06 00:22:00,
2013-09-05 17:42:00,85.0,60.0,27.74,ENE,68,0.0,3.0,43,0.00,,,0.00,,2013-09-06 00:42:00,
2013-09-05 17:52:00,85.0,61.0,27.80,NW,319,2.0,6.0,44,0.00,,,0.00,,2013-09-06 00:52:00,
2013-09-05 18:11:00,84.0,61.0,27.73,NNW,335,6.0,10.0,46,0.00,,,0.00,,2013-09-06 01:11:00,
2013-09-05 18:21:00,84.0,61.0,27.73,WNW,283,3.0,9.0,46,0.00,,,0.00,,2013-09-06 01:21:00,
2013-09-05 18:42:00,84.0,60.0,27.72,WNW,285,6.0,10.0,45,0.00,,,0.00,,2013-09-06 01:42:00,
2013-09-05 18:52:00,83.0,59.0,27.72,WNW,293,4.0,10.0,44,0.00,,,0.00,,2013-09-06 01:52:00,
2013-09-05 19:11:00,83.0,59.0,27.72,NW,313,2.0,6.0,45,0.00,,,0.00,,2013-09-06 02:11:00,
2013-09-05 19:22:00,83.0,60.0,27.72,North,349,2.0,6.0,46,0.00,,,0.00,,2013-09-06 02:22:00,
2013-09-05 19:42:00,82.0,60.0,27.72,NW,319,1.0,4.0,47,0.00,,,0.00,,2013-09-06 02:42:00,
2013-09-05 19:52:00,82.0,59.0,27.71,NW,317,1.0,4.0,46,0.00,,,0.00,,2013-09-06 02:52:00,
2013-09-05 20:11:00,81.0,61.0,27.72,WSW,246,0.0,3.0,51,0.00,,,0.00,,2013-09-06 03:11:00,
2013-09-05 20:22:00,80.0,62.0,27.71,SE,128,0.0,1.0,54,0.00,,,0.00,,2013-09-06 03:22:00,
2013-09-05 20:55:00,75.0,65.0,27.72,SE,125,0.0,4.0,71,0.03,,,0.03,,2013-09-06 03:55:00,
2013-09-05 21:13:00,72.0,62.0,27.72,SSW,212,3.0,7.0,72,0.04,,,0.04,,2013-09-06 04:13:00,
2013-09-05 21:23:00,72.0,63.0,27.73,East,91,0.0,3.0,74,0.04,,,0.04,,2013-09-06 04:23:00,
2013-09-05 21:54:00,71.0,64.0,27.76,ENE,57,0.0,3.0,78,0.02,,,0.05,,2013-09-06 04:54:00,
2013-09-05 22:12:00,69.0,64.0,27.80,East,91,0.0,2.0,83,0.02,,,0.06,,2013-09-06 05:12:00,
2013-09-05 22:23:00,67.0,63.0,27.82,WSW,241,0.0,4.0,86,0.18,,,0.22,,2013-09-06 05:23:00,
2013-09-05 22:42:00,65.0,61.0,27.83,SE,135,0.0,4.0,88,0.20,,,0.25,,2013-09-06 05:42:00,
2013-09-05 22:52:00,64.0,61.0,27.86,NNE,23,0.0,3.0,91,0.23,,,0.28,,2013-09-06 05:52:00,
2013-09-05 23:11:00,64.0,61.0,27.86,West,276,2.0,4.0,91,0.28,,,0.35,,2013-09-06 06:11:00,
2013-09-05 23:21:00,64.0,62.0,27.91,NW,323,5.0,10.0,92,0.19,,,0.42,,2013-09-06 06:21:00,
2013-09-05 23:42:00,64.0,62.0,27.85,NNE,18,5.0,9.0,92,0.20,,,0.45,,2013-09-06 06:42:00,
2013-09-05 23:52:00,64.0,62.0,27.92,NW,304,5.0,9.0,93,0.17,,,0.47,,2013-09-06 06:52:00,